Location: Casco Millpond
(44.5581°N, 87.6111°W)
Time: 22:21:31
(UTC+00:00)

Cosmos 2369 Rocket - Pass Details

Date: 16 January 2026
Orbit: 826 x 853 km, 71.0° (Epoch: 13 February)

Event Time Altitude Azimuth Distance (km) Brightness Sun altitude
Rises 12:31:30 0° 186° (S) 3,387 5.5 -9.2°
Reaches altitude 10° 12:34:00 10° 181° (S) 2,460 4.9 -8.8°
Maximum altitude 12:39:24 48° 108° (ESE) 1,102 3.4 -7.9°
Drops below altitude 10° 12:44:51 10° 36° (NE) 2,488 4.8 -7.0°
Sets 12:47:23 0° 31° (NNE) 3,429 5.5 -6.5°
